Location: Arrington
(35.8681°N, 86.7092°W)
Time: 03:10:14
(UTC+00:00)

NOSS 3-4 (C) - Pass Details

Date: 23 November 2019
Orbit: 907 x 1306 km, 63.4° (Epoch: 11 December)

Event Time Altitude Azimuth Distance (km) Brightness Sun altitude
Exits shadow 11:08:47 18° 314° (NW) 2,497 5.1 -16.5°
Maximum altitude 11:14:10 53° 245° (WSW) 1,460 4.1 -15.5°
Drops below altitude 10° 11:21:45 10° 171° (S) 3,253 6.5 -14.0°
Sets 11:24:42 0° 166° (SSE) 4,248 7.3 -13.4°
